OAL117 SANU-SGAS

Flight info

Callsign OAL117
Flight time N/A
Altitude 37000
Route KIBUN DCT JUA UW24 CBA UL531 ERE UW14 BITUS UP526 SAMGU
Aircraft A320/M-SDE3FGHIRWY/LB1

Departure

Time N/A
Airport Domingo Faustino Sarmiento Airport (SANU)

Arrival

Time 2026-04-24 20:32
Airport Silvio Pettirossi International Airport (SGAS)
Time Latitude Longitude Altitude Speed Heading
2026-04-24 18:54 -31.50168 -66.96072 27180 ft 499 kts 78°
2026-04-24 18:55 -31.48871 -66.88031 27835 ft 506 kts 84°
2026-04-24 18:55 -31.48623 -66.83912 28163 ft 508 kts 87°
2026-04-24 18:55 -31.48401 -66.79771 28494 ft 511 kts 87°
2026-04-24 18:56 -31.48172 -66.75598 28806 ft 515 kts 87°
2026-04-24 18:56 -31.47939 -66.71405 29111 ft 518 kts 87°
2026-04-24 18:56 -31.47704 -66.67180 29419 ft 521 kts 87°
2026-04-24 18:56 -31.47464 -66.62949 29867 ft 520 kts 87°
2026-04-24 18:57 -31.47219 -66.58721 30273 ft 521 kts 86°
2026-04-24 18:57 -31.46969 -66.54483 30593 ft 522 kts 86°
2026-04-24 18:57 -31.46719 -66.50218 30888 ft 525 kts 86°
2026-04-24 18:57 -31.46472 -66.46006 31178 ft 527 kts 86°
2026-04-24 18:58 -31.46223 -66.41693 31471 ft 530 kts 86°
2026-04-24 18:58 -31.45977 -66.37379 31769 ft 532 kts 86°
2026-04-24 18:58 -31.45725 -66.33041 32071 ft 534 kts 85°
2026-04-24 18:58 -31.45467 -66.28676 32345 ft 537 kts 85°
2026-04-24 18:59 -31.45206 -66.24307 32647 ft 539 kts 85°
2026-04-24 18:59 -31.44943 -66.19908 32946 ft 542 kts 85°
2026-04-24 18:59 -31.44676 -66.15495 33246 ft 544 kts 85°
2026-04-24 18:59 -31.44404 -66.11067 33533 ft 547 kts 85°
2026-04-24 19:00 -31.44127 -66.06613 33832 ft 549 kts 84°
2026-04-24 19:00 -31.43848 -66.02136 34109 ft 552 kts 84°
2026-04-24 19:00 -31.43571 -65.97701 34365 ft 554 kts 84°
2026-04-24 19:00 -31.43292 -65.93190 34626 ft 555 kts 84°
2026-04-24 19:01 -31.43013 -65.88673 34892 ft 557 kts 84°
2026-04-24 19:01 -31.42733 -65.84137 35155 ft 558 kts 84°
2026-04-24 19:01 -31.42447 -65.79586 35407 ft 560 kts 84°
2026-04-24 19:01 -31.42156 -65.75026 35651 ft 561 kts 84°
2026-04-24 19:02 -31.41962 -65.72009 35798 ft 562 kts 84°
2026-04-24 19:02 -31.41565 -65.65884 36109 ft 564 kts 84°
2026-04-24 19:02 -31.41265 -65.61299 36349 ft 566 kts 84°
2026-04-24 19:02 -31.40962 -65.56690 36584 ft 567 kts 84°
2026-04-24 19:03 -31.40664 -65.52130 36818 ft 569 kts 84°
2026-04-24 19:03 -31.40363 -65.47510 36991 ft 571 kts 84°
2026-04-24 19:03 -31.40058 -65.42853 37040 ft 575 kts 84°
2026-04-24 19:04 -31.39436 -65.33492 37051 ft 577 kts 84°
2026-04-24 19:04 -31.38800 -65.24102 37051 ft 578 kts 83°
2026-04-24 19:05 -31.38160 -65.14758 37057 ft 578 kts 83°
2026-04-24 19:05 -31.37507 -65.05362 37066 ft 579 kts 83°
2026-04-24 19:06 -31.36856 -64.95961 37067 ft 579 kts 83°
2026-04-24 19:06 -31.36202 -64.86560 37057 ft 580 kts 83°
2026-04-24 19:07 -31.35532 -64.77187 37056 ft 580 kts 83°
2026-04-24 19:07 -31.34963 -64.69294 37051 ft 580 kts 83°
2026-04-24 19:08 -31.34163 -64.58361 37033 ft 580 kts 83°
2026-04-24 19:08 -31.33472 -64.48951 37022 ft 581 kts 83°
2026-04-24 19:09 -31.32777 -64.39508 37013 ft 581 kts 83°
2026-04-24 19:09 -31.32060 -64.30061 37013 ft 581 kts 81°
2026-04-24 19:10 -31.30280 -64.21006 37007 ft 569 kts 63°
2026-04-24 19:10 -31.26704 -64.12927 36996 ft 550 kts 45°
2026-04-24 19:11 -31.22217 -64.05710 36986 ft 548 kts 43°
2026-04-24 19:11 -31.17754 -63.98555 36991 ft 549 kts 43°
2026-04-24 19:12 -31.13257 -63.91319 36997 ft 550 kts 43°
2026-04-24 19:12 -31.08752 -63.84084 37004 ft 551 kts 43°
2026-04-24 19:13 -31.04989 -63.78063 37003 ft 551 kts 43°
2026-04-24 19:13 -30.99726 -63.69664 37011 ft 552 kts 43°
2026-04-24 19:14 -30.95184 -63.62433 37019 ft 552 kts 42°
2026-04-24 19:14 -30.90639 -63.55205 37020 ft 553 kts 43°
2026-04-24 19:15 -30.86147 -63.47911 37026 ft 554 kts 43°
2026-04-24 19:15 -30.81727 -63.40607 37034 ft 555 kts 43°
2026-04-24 19:16 -30.75023 -63.29628 37043 ft 553 kts 42°
2026-04-24 19:16 -30.70483 -63.22429 37049 ft 551 kts 41°
2026-04-24 19:17 -30.65956 -63.15293 37052 ft 551 kts 42°
2026-04-24 19:17 -30.61425 -63.08109 37057 ft 550 kts 42°
2026-04-24 19:18 -30.56917 -63.00935 37057 ft 549 kts 42°
2026-04-24 19:18 -30.52408 -62.93783 37064 ft 548 kts 42°
2026-04-24 19:19 -30.47894 -62.86653 37061 ft 547 kts 42°
2026-04-24 19:19 -30.43393 -62.79539 37055 ft 546 kts 42°
2026-04-24 19:20 -30.38925 -62.72495 37056 ft 545 kts 42°
2026-04-24 19:20 -30.34421 -62.65437 37058 ft 544 kts 42°
2026-04-24 19:21 -30.29910 -62.58405 37061 ft 543 kts 42°
2026-04-24 19:21 -30.25402 -62.51375 37060 ft 542 kts 42°
2026-04-24 19:22 -30.20932 -62.44408 37058 ft 541 kts 42°
2026-04-24 19:22 -30.16436 -62.37423 37055 ft 540 kts 42°
2026-04-24 19:23 -30.11941 -62.30463 37055 ft 539 kts 42°
2026-04-24 19:23 -30.07457 -62.23535 37057 ft 538 kts 42°
2026-04-24 19:24 -30.02978 -62.16611 37059 ft 537 kts 42°
2026-04-24 19:24 -29.98507 -62.09704 37056 ft 536 kts 42°
2026-04-24 19:25 -29.94062 -62.02850 37056 ft 535 kts 41°
2026-04-24 19:25 -29.89586 -61.95968 37065 ft 536 kts 43°
2026-04-24 19:26 -29.87602 -61.92278 37062 ft 550 kts 53°
2026-04-24 19:26 -29.86068 -61.88180 37061 ft 562 kts 64°
2026-04-24 19:26 -29.83635 -61.79650 37054 ft 563 kts 64°
2026-04-24 19:27 -29.81614 -61.72507 37055 ft 562 kts 65°
2026-04-24 19:27 -29.79177 -61.63957 37058 ft 562 kts 64°
2026-04-24 19:28 -29.76711 -61.55415 37056 ft 561 kts 64°
2026-04-24 19:28 -29.74245 -61.46877 37056 ft 561 kts 64°
2026-04-24 19:29 -29.70544 -61.34087 37058 ft 561 kts 64°
2026-04-24 19:30 -29.68076 -61.25582 37059 ft 560 kts 64°
2026-04-24 19:30 -29.65843 -61.17920 37059 ft 560 kts 64°
2026-04-24 19:31 -29.63357 -61.09428 37062 ft 560 kts 64°
2026-04-24 19:31 -29.60875 -61.00955 37058 ft 559 kts 64°
2026-04-24 19:32 -29.58390 -60.92481 37064 ft 559 kts 64°
2026-04-24 19:32 -29.55897 -60.84009 37056 ft 559 kts 64°
2026-04-24 19:33 -29.53384 -60.75553 37055 ft 558 kts 64°
2026-04-24 19:33 -29.50845 -60.67133 37066 ft 557 kts 63°
2026-04-24 19:34 -29.49547 -60.62799 37060 ft 558 kts 65°
2026-04-24 19:34 -29.47074 -60.54371 37064 ft 556 kts 63°
2026-04-24 19:35 -29.44480 -60.46013 37061 ft 555 kts 63°
2026-04-24 19:35 -29.41887 -60.37658 37055 ft 556 kts 63°
2026-04-24 19:36 -29.39362 -60.29276 37070 ft 556 kts 64°
2026-04-24 19:36 -29.36874 -60.20864 37062 ft 556 kts 64°
2026-04-24 19:37 -29.34373 -60.12534 37062 ft 555 kts 64°
2026-04-24 19:37 -29.31826 -60.04174 37064 ft 555 kts 64°
2026-04-24 19:38 -29.29286 -59.95831 37058 ft 555 kts 64°
2026-04-24 19:38 -29.26742 -59.87476 37057 ft 555 kts 64°
2026-04-24 19:39 -29.24193 -59.79115 37056 ft 554 kts 64°
2026-04-24 19:39 -29.21639 -59.70781 37056 ft 554 kts 63°
2026-04-24 19:40 -29.18387 -59.62940 37056 ft 542 kts 53°
2026-04-24 19:40 -29.14818 -59.55389 37056 ft 541 kts 53°
2026-04-24 19:41 -29.11219 -59.47803 37054 ft 541 kts 53°
2026-04-24 19:41 -29.07647 -59.40274 37055 ft 541 kts 53°
2026-04-24 19:42 -29.04063 -59.32713 37058 ft 540 kts 53°
2026-04-24 19:42 -29.00484 -59.25152 37059 ft 540 kts 53°
2026-04-24 19:43 -28.96900 -59.17605 37058 ft 539 kts 53°
2026-04-24 19:43 -28.93309 -59.10085 37063 ft 539 kts 53°
2026-04-24 19:44 -28.89736 -59.02617 37055 ft 538 kts 53°
2026-04-24 19:44 -28.86139 -58.95104 37055 ft 538 kts 53°
2026-04-24 19:45 -28.82591 -58.87602 37057 ft 538 kts 54°
2026-04-24 19:45 -28.79079 -58.80058 37056 ft 538 kts 54°
2026-04-24 19:46 -28.75589 -58.72579 37057 ft 537 kts 54°
2026-04-24 19:46 -28.72052 -58.65073 37061 ft 536 kts 53°
2026-04-24 19:47 -28.68508 -58.57584 37048 ft 536 kts 54°
2026-04-24 19:47 -28.64972 -58.50100 37053 ft 536 kts 54°
2026-04-24 19:48 -28.61434 -58.42685 37050 ft 535 kts 53°
2026-04-24 19:48 -28.55998 -58.31616 37044 ft 533 kts 53°
2026-04-24 19:49 -28.48718 -58.16876 37050 ft 534 kts 53°
2026-04-24 19:50 -28.41470 -58.02145 37045 ft 533 kts 53°
2026-04-24 19:51 -28.36045 -57.91177 37060 ft 533 kts 53°
2026-04-24 19:52 -28.30590 -57.80193 37050 ft 531 kts 53°
2026-04-24 19:52 -28.26970 -57.72886 37054 ft 530 kts 53°
2026-04-24 19:53 -28.22994 -57.65956 37043 ft 512 kts 38°
2026-04-24 19:53 -28.17595 -57.61170 37032 ft 478 kts 15°
2026-04-24 19:54 -28.14635 -57.59714 37030 ft 461 kts
2026-04-24 19:54 -28.11580 -57.58841 37023 ft 445 kts 356°
2026-04-24 19:54 -28.08548 -57.58535 37021 ft 432 kts 350°
2026-04-24 19:55 -28.03510 -57.58353 37017 ft 433 kts 350°
2026-04-24 19:55 -27.96504 -57.58068 37010 ft 434 kts 351°
2026-04-24 19:56 -27.90464 -57.57808 37018 ft 434 kts 351°
2026-04-24 19:56 -27.84420 -57.57550 37016 ft 434 kts 351°
2026-04-24 19:57 -27.78373 -57.57296 37018 ft 434 kts 351°
2026-04-24 19:57 -27.72366 -57.57045 36577 ft 432 kts 351°
2026-04-24 19:57 -27.69399 -57.56915 36470 ft 420 kts 351°
2026-04-24 19:58 -27.66516 -57.56785 36370 ft 408 kts 351°
2026-04-24 19:58 -27.63713 -57.56659 36272 ft 397 kts 351°
2026-04-24 19:58 -27.60986 -57.56537 36183 ft 386 kts 351°
2026-04-24 19:58 -27.58338 -57.56422 36094 ft 375 kts 350°
2026-04-24 19:59 -27.55753 -57.56319 36008 ft 369 kts 350°
2026-04-24 19:59 -27.50656 -57.56136 35844 ft 365 kts 350°
2026-04-24 20:00 -27.45610 -57.55945 35679 ft 364 kts 350°
2026-04-24 20:00 -27.40546 -57.55746 35522 ft 363 kts 350°
2026-04-24 20:01 -27.35504 -57.55604 35365 ft 362 kts 350°
2026-04-24 20:01 -27.30479 -57.55475 35212 ft 360 kts 350°
2026-04-24 20:02 -27.26328 -57.55357 35075 ft 358 kts 350°
2026-04-24 20:02 -27.22997 -57.55259 34974 ft 357 kts 350°
2026-04-24 20:02 -27.20514 -57.55185 34895 ft 357 kts 350°
2026-04-24 20:03 -27.15555 -57.55038 34748 ft 356 kts 351°
2026-04-24 20:03 -27.10581 -57.54897 34599 ft 363 kts 351°
2026-04-24 20:03 -27.08013 -57.54836 34525 ft 376 kts 351°
2026-04-24 20:04 -27.05344 -57.54774 34457 ft 389 kts 352°
2026-04-24 20:04 -27.02627 -57.54706 34370 ft 400 kts 352°
2026-04-24 20:04 -26.99816 -57.54626 34287 ft 406 kts 352°
2026-04-24 20:05 -26.94123 -57.54436 34120 ft 408 kts 353°
2026-04-24 20:05 -26.88443 -57.54252 33747 ft 409 kts 353°
2026-04-24 20:05 -26.85594 -57.54169 32825 ft 417 kts 353°
2026-04-24 20:06 -26.82669 -57.54108 31898 ft 424 kts 352°
2026-04-24 20:06 -26.79681 -57.54077 30980 ft 431 kts 352°
2026-04-24 20:06 -26.76647 -57.54062 29923 ft 441 kts 352°
2026-04-24 20:06 -26.73560 -57.54046 29157 ft 441 kts 352°
2026-04-24 20:07 -26.71536 -57.54026 28764 ft 438 kts 352°
2026-04-24 20:07 -26.67471 -57.53977 27871 ft 435 kts 352°
2026-04-24 20:07 -26.65475 -57.53952 27426 ft 433 kts 352°
2026-04-24 20:07 -26.62466 -57.53916 26769 ft 431 kts 352°
2026-04-24 20:08 -26.59471 -57.53879 26114 ft 429 kts 353°
2026-04-24 20:08 -26.55529 -57.53832 25258 ft 426 kts 353°
2026-04-24 20:08 -26.53526 -57.53809 24825 ft 425 kts 353°
2026-04-24 20:08 -26.50579 -57.53776 24269 ft 421 kts 353°
2026-04-24 20:09 -26.47679 -57.53741 24054 ft 409 kts 353°
2026-04-24 20:09 -26.44879 -57.53703 23966 ft 395 kts 352°
2026-04-24 20:09 -26.42218 -57.53665 23982 ft 380 kts 352°
2026-04-24 20:09 -26.39616 -57.53628 23754 ft 372 kts 352°
2026-04-24 20:10 -26.36982 -57.53607 22841 ft 383 kts 352°
2026-04-24 20:10 -26.34321 -57.53586 22452 ft 379 kts 353°
2026-04-24 20:10 -26.31689 -57.53561 21937 ft 378 kts 353°
2026-04-24 20:10 -26.29050 -57.53533 21409 ft 377 kts 353°
2026-04-24 20:11 -26.26423 -57.53508 20891 ft 376 kts 354°
2026-04-24 20:11 -26.23811 -57.53484 20371 ft 376 kts 354°
2026-04-24 20:11 -26.21202 -57.53461 19854 ft 375 kts 354°
2026-04-24 20:11 -26.18623 -57.53438 19332 ft 374 kts 355°
2026-04-24 20:12 -26.16025 -57.53414 18820 ft 373 kts 355°
2026-04-24 20:12 -26.13433 -57.53388 18294 ft 372 kts 355°
2026-04-24 20:12 -26.10851 -57.53364 17726 ft 370 kts 356°
2026-04-24 20:12 -26.08286 -57.53255 17285 ft 368 kts
2026-04-24 20:13 -26.05789 -57.52796 17000 ft 359 kts
2026-04-24 20:13 -26.03368 -57.52347 16916 ft 344 kts
2026-04-24 20:13 -26.01057 -57.51922 16846 ft 331 kts
2026-04-24 20:13 -25.98806 -57.51511 16767 ft 325 kts
2026-04-24 20:14 -25.96583 -57.51108 16692 ft 323 kts
2026-04-24 20:14 -25.94362 -57.50704 16624 ft 323 kts
2026-04-24 20:14 -25.92148 -57.50301 16551 ft 322 kts
2026-04-24 20:14 -25.89964 -57.49902 16481 ft 322 kts
2026-04-24 20:15 -25.87745 -57.49495 16343 ft 322 kts
2026-04-24 20:15 -25.85541 -57.49090 16007 ft 320 kts
2026-04-24 20:15 -25.83355 -57.48685 15666 ft 318 kts
2026-04-24 20:15 -25.81178 -57.48283 15335 ft 316 kts
2026-04-24 20:16 -25.79019 -57.47887 15001 ft 314 kts
2026-04-24 20:16 -25.76868 -57.47494 14677 ft 312 kts
2026-04-24 20:16 -25.74729 -57.47107 14354 ft 310 kts
2026-04-24 20:16 -25.72609 -57.46736 14038 ft 307 kts
2026-04-24 20:17 -25.70501 -57.46376 13714 ft 306 kts
2026-04-24 20:17 -25.66346 -57.45677 13001 ft 302 kts
2026-04-24 20:17 -25.64272 -57.45334 12652 ft 300 kts
2026-04-24 20:18 -25.62884 -57.45106 12439 ft 296 kts
2026-04-24 20:18 -25.60273 -57.44674 12046 ft 277 kts
2026-04-24 20:18 -25.58403 -57.44361 11753 ft 265 kts
2026-04-24 20:18 -25.56614 -57.44059 11461 ft 257 kts
2026-04-24 20:19 -25.54853 -57.43763 11173 ft 254 kts
2026-04-24 20:19 -25.53107 -57.43471 10883 ft 253 kts
2026-04-24 20:19 -25.51369 -57.43183 10601 ft 252 kts
2026-04-24 20:19 -25.49631 -57.42902 10321 ft 253 kts
2026-04-24 20:20 -25.47891 -57.42622 10045 ft 253 kts
2026-04-24 20:20 -25.46148 -57.42342 9769 ft 252 kts
2026-04-24 20:20 -25.44417 -57.42068 9532 ft 248 kts
2026-04-24 20:20 -25.42709 -57.41801 9352 ft 251 kts
2026-04-24 20:21 -25.40972 -57.41533 8975 ft 254 kts
2026-04-24 20:21 -25.39215 -57.41267 8600 ft 256 kts
2026-04-24 20:21 -25.37437 -57.41004 8230 ft 259 kts
2026-04-24 20:21 -25.35642 -57.40743 7863 ft 261 kts
2026-04-24 20:22 -25.33836 -57.40487 7518 ft 263 kts
2026-04-24 20:22 -25.32022 -57.40235 7204 ft 262 kts
2026-04-24 20:22 -25.30211 -57.39987 6894 ft 262 kts
2026-04-24 20:22 -25.28398 -57.39741 6594 ft 262 kts
2026-04-24 20:23 -25.26589 -57.39499 6287 ft 262 kts
2026-04-24 20:23 -25.24781 -57.39262 5965 ft 261 kts
2026-04-24 20:23 -25.22975 -57.39035 5645 ft 261 kts
2026-04-24 20:23 -25.21213 -57.38819 5324 ft 253 kts
2026-04-24 20:24 -25.19498 -57.38577 5012 ft 243 kts
2026-04-24 20:24 -25.17893 -57.38125 4703 ft 233 kts 17°
2026-04-24 20:24 -25.16436 -57.37399 4377 ft 225 kts 25°
2026-04-24 20:24 -25.15075 -57.36605 4060 ft 218 kts 26°
2026-04-24 20:25 -25.13740 -57.35885 3744 ft 209 kts 14°
2026-04-24 20:25 -25.12338 -57.35653 3430 ft 200 kts
2026-04-24 20:25 -25.10969 -57.35429 3127 ft 195 kts 359°
2026-04-24 20:25 -25.09681 -57.35730 2960 ft 193 kts 332°
2026-04-24 20:26 -25.08650 -57.36644 2791 ft 192 kts 306°
2026-04-24 20:26 -25.08098 -57.37972 2630 ft 191 kts 282°
2026-04-24 20:26 -25.07807 -57.39469 2518 ft 205 kts 282°
2026-04-24 20:26 -25.07498 -57.41019 2400 ft 208 kts 282°
2026-04-24 20:27 -25.07185 -57.42578 2275 ft 208 kts 282°
2026-04-24 20:27 -25.06972 -57.44125 2145 ft 198 kts 269°
2026-04-24 20:27 -25.07193 -57.45595 2088 ft 192 kts 250°
2026-04-24 20:27 -25.07829 -57.46897 2172 ft 190 kts 232°
2026-04-24 20:28 -25.08697 -57.47821 2253 ft 165 kts 216°
2026-04-24 20:28 -25.09678 -57.48394 2285 ft 156 kts 201°
2026-04-24 20:28 -25.10721 -57.48691 2284 ft 153 kts 193°
2026-04-24 20:28 -25.11758 -57.48943 2237 ft 150 kts 193°
2026-04-24 20:29 -25.12429 -57.49106 2164 ft 146 kts 194°
2026-04-24 20:29 -25.13730 -57.49422 1940 ft 142 kts 194°
2026-04-24 20:29 -25.14693 -57.49656 1769 ft 140 kts 194°
2026-04-24 20:29 -25.15648 -57.49888 1595 ft 140 kts 194°
2026-04-24 20:30 -25.16588 -57.50116 1403 ft 139 kts 194°
2026-04-24 20:30 -25.17532 -57.50345 1229 ft 138 kts 194°
2026-04-24 20:30 -25.18469 -57.50573 1058 ft 138 kts 194°
2026-04-24 20:30 -25.19405 -57.50799 905 ft 138 kts 195°
2026-04-24 20:31 -25.20338 -57.51026 734 ft 136 kts 197°
2026-04-24 20:31 -25.21251 -57.51248 556 ft 134 kts 196°
2026-04-24 20:31 -25.22164 -57.51470 379 ft 134 kts 195°
2026-04-24 20:31 -25.23067 -57.51693 274 ft 124 kts 193°
2026-04-24 20:32 -25.23654 -57.51835 274 ft 67 kts 192°
2026-04-24 20:32 -25.24029 -57.51931 280 ft 49 kts 192°
2026-04-24 20:32 -25.24240 -57.51950 282 ft 17 kts 148°
2026-04-24 20:32 -25.24267 -57.51869 280 ft 12 kts 103°
2026-04-24 20:33 -25.24288 -57.51761 279 ft 16 kts 101°
2026-04-24 20:33 -25.24289 -57.51661 279 ft 8 kts 33°
2026-04-24 20:33 -25.24224 -57.51645 279 ft 11 kts 11°
2026-04-24 20:33 -25.24149 -57.51610 279 ft 12 kts 58°
2026-04-24 20:34 -25.24151 -57.51576 279 ft 3 kts 120°
2026-04-24 20:34 -25.24167 -57.51545 281 ft 6 kts 117°
2026-04-24 20:34 -25.24177 -57.51522 283 ft 0 kts 117°